When you browse on this site, cookies collect data to enhance your experience and personalize the content and advertising you see.
Visit our Privacy Policy to learn more. By continuing to use the site, you agree to this use of cookies and data.
  • In Österreich
  • Länderverzeichnis
  • Für 7 Tage
  • Wassertemperatur
  • Wetterkarte
  • News
  • Widgets
  • user-avatar
    Anmelden

    Stündliche Wetter San Juan Tepa

    Heute, 23 August, Freitag

    Zeit Temperatur Niederschläge Wind Luftdruck Luftfeuchtigkeit
    00:00 +16°C° 0 mm 1 m/S 599 mmHg 87%
    01:00 +16°C° 0 mm 1 m/S 599 mmHg 88%
    02:00 +15°C° 0 mm 1 m/S 599 mmHg 89%
    03:00 +15°C° 0 mm 1 m/S 598 mmHg 89%
    04:00 +14°C° 0 mm 0 m/S 598 mmHg 90%
    05:00 +13°C° 0 mm 0 m/S 598 mmHg 90%
    06:00 +16°C° 0 mm 1 m/S 599 mmHg 83%
    07:00 +19°C° 0 mm 1 m/S 600 mmHg 77%
    08:00 +21°C° 0 mm 1 m/S 601 mmHg 71%
    09:00 +22°C° 0 mm 1 m/S 601 mmHg 65%
    10:00 +24°C° 0 mm 2 m/S 602 mmHg 60%
    11:00 +25°C° 0 mm 2 m/S 602 mmHg 54%
    12:00 +26°C° 0.3 mm 3 m/S 602 mmHg 53%
    13:00 +26°C° 0.3 mm 3 m/S 601 mmHg 52%
    14:00 +26°C° 0.3 mm 4 m/S 601 mmHg 51%
    15:00 +25°C° 1.3 mm 4 m/S 601 mmHg 58%
    16:00 +24°C° 1.3 mm 3 m/S 600 mmHg 65%
    17:00 +21°C° 1.3 mm 3 m/S 599 mmHg 72%
    18:00 +20°C° 1.1 mm 3 m/S 599 mmHg 77%
    19:00 +18°C° 1.1 mm 3 m/S 599 mmHg 82%
    20:00 +17°C° 1.1 mm 3 m/S 600 mmHg 87%
    21:00 +16°C° 0 mm 3 m/S 599 mmHg 87%
    22:00 +16°C° 0 mm 2 m/S 599 mmHg 88%
    23:00 +15°C° 0 mm 2 m/S 599 mmHg 88%

    Morgen, 24 August, Samstag

    Zeit Temperatur Niederschläge Wind Luftdruck Luftfeuchtigkeit
    00:00 +15°C° 0 mm 1 m/S 599 mmHg 88%
    01:00 +15°C° 0 mm 1 m/S 598 mmHg 88%
    02:00 +15°C° 0 mm 1 m/S 598 mmHg 88%
    03:00 +15°C° 0 mm 1 m/S 598 mmHg 87%
    04:00 +15°C° 0 mm 1 m/S 598 mmHg 87%
    05:00 +15°C° 0 mm 1 m/S 598 mmHg 87%
    06:00 +16°C° 0 mm 1 m/S 599 mmHg 80%
    07:00 +19°C° 0 mm 1 m/S 600 mmHg 74%
    08:00 +21°C° 0 mm 1 m/S 601 mmHg 68%
    09:00 +22°C° 0 mm 1 m/S 601 mmHg 63%
    10:00 +23°C° 0 mm 1 m/S 601 mmHg 58%
    11:00 +24°C° 0 mm 1 m/S 602 mmHg 53%
    12:00 +25°C° 0 mm 1 m/S 601 mmHg 51%
    13:00 +26°C° 0 mm 2 m/S 601 mmHg 49%
    14:00 +26°C° 0 mm 2 m/S 601 mmHg 48%
    15:00 +26°C° 0.5 mm 2 m/S 601 mmHg 53%
    16:00 +25°C° 0.5 mm 3 m/S 600 mmHg 58%
    17:00 +24°C° 0.5 mm 3 m/S 600 mmHg 63%
    18:00 +23°C° 1.1 mm 2 m/S 600 mmHg 69%
    19:00 +20°C° 1.1 mm 2 m/S 600 mmHg 75%
    20:00 +19°C° 1.1 mm 2 m/S 600 mmHg 82%
    21:00 +18°C° 0 mm 2 m/S 600 mmHg 82%
    22:00 +19°C° 0 mm 1 m/S 600 mmHg 82%
    23:00 +19°C° 0 mm 1 m/S 600 mmHg 82%

    übermorgen, 25 August, Sonntag

    Zeit Temperatur Niederschläge Wind Luftdruck Luftfeuchtigkeit
    00:00 +18°C° 0 mm 1 m/S 599 mmHg 83%
    01:00 +16°C° 0 mm 1 m/S 598 mmHg 83%
    02:00 +16°C° 0 mm 1 m/S 598 mmHg 84%
    03:00 +16°C° 0 mm 1 m/S 598 mmHg 84%
    04:00 +15°C° 0 mm 1 m/S 598 mmHg 84%
    05:00 +14°C° 0 mm 0 m/S 598 mmHg 84%
    06:00 +18°C° 0 mm 1 m/S 599 mmHg 77%
    07:00 +20°C° 0 mm 1 m/S 600 mmHg 70%
    08:00 +22°C° 0 mm 1 m/S 601 mmHg 63%
    09:00 +23°C° 0 mm 1 m/S 601 mmHg 58%
    10:00 +25°C° 0 mm 1 m/S 601 mmHg 53%
    11:00 +26°C° 0 mm 1 m/S 602 mmHg 47%
    12:00 +27°C° 0.2 mm 2 m/S 601 mmHg 46%
    13:00 +27°C° 0.2 mm 3 m/S 601 mmHg 46%
    14:00 +28°C° 0.2 mm 3 m/S 601 mmHg 45%
    15:00 +27°C° 0.8 mm 3 m/S 600 mmHg 52%
    16:00 +25°C° 0.8 mm 4 m/S 599 mmHg 58%
    17:00 +23°C° 0.8 mm 4 m/S 599 mmHg 65%
    18:00 +21°C° 0.3 mm 3 m/S 599 mmHg 69%
    19:00 +20°C° 0.3 mm 2 m/S 599 mmHg 73%
    20:00 +20°C° 0.3 mm 1 m/S 599 mmHg 77%
    21:00 +19°C° 0.1 mm 1 m/S 599 mmHg 78%
    22:00 +19°C° 0.1 mm 1 m/S 599 mmHg 79%
    23:00 +16°C° 0.1 mm 0 m/S 599 mmHg 80%

    26 August, Montag

    Zeit Temperatur Niederschläge Wind Luftdruck Luftfeuchtigkeit
    00:00 +16°C° 0.1 mm 0 m/S 598 mmHg 81%
    01:00 +16°C° 0.1 mm 0 m/S 598 mmHg 81%
    02:00 +16°C° 0.1 mm 0 m/S 598 mmHg 82%
    03:00 +16°C° 0 mm 0 m/S 598 mmHg 82%
    04:00 +16°C° 0 mm 0 m/S 598 mmHg 82%
    05:00 +18°C° 0 mm 1 m/S 598 mmHg 83%
    06:00 +19°C° 0 mm 1 m/S 598 mmHg 77%
    07:00 +20°C° 0 mm 1 m/S 599 mmHg 70%
    08:00 +22°C° 0 mm 1 m/S 600 mmHg 64%
    09:00 +23°C° 0.1 mm 1 m/S 600 mmHg 59%
    10:00 +25°C° 0.1 mm 1 m/S 601 mmHg 53%
    11:00 +27°C° 0.1 mm 1 m/S 601 mmHg 47%
    12:00 +27°C° 0.3 mm 1 m/S 600 mmHg 48%
    13:00 +27°C° 0.3 mm 2 m/S 600 mmHg 48%
    14:00 +27°C° 0.3 mm 3 m/S 599 mmHg 49%
    15:00 +25°C° 1.3 mm 3 m/S 599 mmHg 58%
    16:00 +22°C° 1.3 mm 3 m/S 598 mmHg 67%
    17:00 +21°C° 1.3 mm 3 m/S 597 mmHg 76%
    18:00 +20°C° 0.9 mm 2 m/S 598 mmHg 78%
    19:00 +18°C° 0.9 mm 2 m/S 598 mmHg 80%
    20:00 +18°C° 0.9 mm 1 m/S 598 mmHg 82%
    21:00 +18°C° 0 mm 1 m/S 598 mmHg 83%
    22:00 +15°C° 0 mm 0 m/S 598 mmHg 84%
    23:00 +15°C° 0 mm 0 m/S 598 mmHg 85%

    27 August, Dienstag

    Zeit Temperatur Niederschläge Wind Luftdruck Luftfeuchtigkeit
    00:00 +15°C° 0 mm 0 m/S 598 mmHg 85%
    01:00 +15°C° 0 mm 0 m/S 598 mmHg 85%
    02:00 +14°C° 0 mm 0 m/S 597 mmHg 85%
    03:00 +14°C° 0 mm 0 m/S 597 mmHg 85%
    04:00 +14°C° 0 mm 0 m/S 597 mmHg 85%
    05:00 +14°C° 0 mm 0 m/S 597 mmHg 84%
    06:00 +15°C° 0 mm 0 m/S 598 mmHg 78%
    07:00 +17°C° 0 mm 0 m/S 599 mmHg 71%
    08:00 +18°C° 0 mm 0 m/S 600 mmHg 65%
    09:00 +22°C° 0 mm 1 m/S 600 mmHg 60%
    10:00 +23°C° 0 mm 1 m/S 600 mmHg 56%
    11:00 +24°C° 0 mm 1 m/S 601 mmHg 51%
    12:00 +25°C° 0.2 mm 2 m/S 600 mmHg 51%
    13:00 +25°C° 0.2 mm 3 m/S 600 mmHg 51%
    14:00 +26°C° 0.2 mm 4 m/S 600 mmHg 51%
    15:00 +25°C° 1.1 mm 4 m/S 599 mmHg 58%
    16:00 +24°C° 1.1 mm 3 m/S 599 mmHg 65%
    17:00 +21°C° 1.1 mm 3 m/S 599 mmHg 72%
    18:00 +20°C° 0.5 mm 3 m/S 599 mmHg 77%
    19:00 +19°C° 0.5 mm 2 m/S 599 mmHg 82%
    20:00 +18°C° 0.5 mm 2 m/S 600 mmHg 86%
    21:00 +19°C° 0.3 mm 1 m/S 600 mmHg 87%
    22:00 +18°C° 0.3 mm 1 m/S 600 mmHg 88%
    23:00 +18°C° 0.3 mm 1 m/S 600 mmHg 89%

    28 August, Mittwoch

    Zeit Temperatur Niederschläge Wind Luftdruck Luftfeuchtigkeit
    00:00 +18°C° 0.5 mm 1 m/S 600 mmHg 87%
    01:00 +18°C° 0.5 mm 1 m/S 599 mmHg 86%
    02:00 +16°C° 0.5 mm 1 m/S 599 mmHg 85%
    03:00 +15°C° 0.1 mm 0 m/S 599 mmHg 86%
    04:00 +15°C° 0.1 mm 0 m/S 599 mmHg 86%
    05:00 +14°C° 0.1 mm 0 m/S 599 mmHg 87%
    06:00 +16°C° 0 mm 0 m/S 600 mmHg 82%
    07:00 +17°C° 0 mm 0 m/S 601 mmHg 76%
    08:00 +19°C° 0 mm 0 m/S 602 mmHg 71%
    09:00 +22°C° 0.2 mm 1 m/S 602 mmHg 65%
    10:00 +23°C° 0.2 mm 1 m/S 602 mmHg 59%
    11:00 +25°C° 0.2 mm 2 m/S 602 mmHg 53%
    12:00 +25°C° 0.5 mm 3 m/S 602 mmHg 54%
    13:00 +25°C° 0.5 mm 4 m/S 601 mmHg 56%
    14:00 +25°C° 0.5 mm 5 m/S 601 mmHg 57%
    15:00 +23°C° 1.4 mm 5 m/S 600 mmHg 63%
    16:00 +21°C° 1.4 mm 4 m/S 600 mmHg 69%
    17:00 +20°C° 1.4 mm 4 m/S 600 mmHg 75%
    18:00 +19°C° 0.6 mm 3 m/S 600 mmHg 80%
    19:00 +18°C° 0.6 mm 3 m/S 600 mmHg 85%
    20:00 +17°C° 0.6 mm 2 m/S 600 mmHg 90%
    21:00 +17°C° 0.2 mm 2 m/S 600 mmHg 91%
    22:00 +16°C° 0.2 mm 1 m/S 600 mmHg 92%
    23:00 +16°C° 0.2 mm 1 m/S 600 mmHg 93%
    Mehr zeigen